Regional Weather Roundup
Issued by NWS

Home | Current Version | Previous Version | Text Only | Print | Product List | Glossary On
Versions: 1 2 3 4 5 6 7 8 9 10 11 12 13 14 15 16 17 18 19 20 21 22 23 24 25 26 27 28 29 30 31 32 33 34 35 36 37 38 39 40 41 42 43 44 45 46 47 48 49 50
000
ASUS43 KMPX 230210
RWRMN
WEATHER ROUNDUP FOR MINNESOTA
NATIONAL WEATHER SERVICE TWIN CITIES/CHANHASSEN MN
900 PM CDT TUE APR 22 2014


NOTE: "FAIR" INDICATES FEW OR NO CLOUDS BELOW 12,000 FEET WITH NO
SIGNIFICANT WEATHER AND/OR OBSTRUCTIONS TO VISIBILITY. N/A MEANS
CURRENT SKY AND/OR WEATHER CONDITIONS ARE NOT AVAILABLE.

MNZ060>063-068>070-230300-
   Twin Cities Metro

CITY           SKY/WX    TMP DP  RH WIND       PRES   REMARKS
TWIN CITIES    PTCLDY    52  26  36 NE5       30.07R
ST PAUL        CLEAR     50  24  36 CALM      30.08R
CRYSTAL        CLEAR     48  27  44 NE3       30.06R
EDEN PRAIRIE   CLEAR     52  25  35 E5        30.05R
LAKEVILLE      CLEAR     46  28  49 NE3       30.07R
SOUTH ST PAUL  CLEAR     55  22  27 CALM      30.07R
LAKE ELMO      FAIR      46  27  46 CALM      30.08R
$$
MNZ001>005-007-008-013>017-022>024-027-028-230300-
   Northwest Minnesota

CITY           SKY/WX    TMP DP  RH WIND       PRES   REMARKS
BEMIDJI        CLEAR     42  20  40 E3        30.03R
HALLOCK        CLOUDY    48  36  61 E9        30.00S
ROSEAU         CLEAR     39  30  70 E6        30.04R
WARROAD        CLEAR     37  25  60 E7        30.05S
THIEF RVR FALL CLEAR     48  30  49 E8        30.03R
CROOKSTON      CLEAR     52  34  50 E6        30.00S
FOSSTON        CLEAR     43  23  45 E6        30.03R
DETROIT LAKES  PTCLDY    52  30  43 SE7       30.02R
MOORHEAD       CLEAR     54  36  50 SE7       29.99S
PARK RAPIDS    PTCLDY    48  25  40 E6        30.03R
$$
MNZ006-009>011-018-025>026-230300-
   North Central Minnesota

CITY           SKY/WX    TMP DP  RH WIND       PRES   REMARKS
BAUDETTE       CLEAR     43  24  47 NE3       30.05
FLAG ISLAND    CLEAR     37  19  48 CALM      30.05R
INTL FALLS     CLEAR     37  22  54 E3        30.05S
WASKISH        CLEAR     41  27  56 CALM      30.04R HAZE
BIG FORK       CLEAR     39  21  48 NE3       30.05R
LONGVILLE      CLEAR     37  25  60 CALM      30.05R
GRAND RAPIDS   CLEAR     39  19  45 S3        30.05R
CRANE LAKE     CLEAR     28  18  64 CALM      30.08S
ORR            CLEAR     39  18  41 CALM      30.04S
COOK           CLEAR     37  21  52 CALM      30.07R
$$
MNZ012-019>021-037-230300-
   Northeast Minnesota

CITY           SKY/WX    TMP DP  RH WIND       PRES   REMARKS
DULUTH         CLEAR     45  20  36 CALM      30.06R
ELY            CLEAR     34  21  60 CALM      30.06S
HIBBING        CLEAR     39  20  46 NE3       30.05R
EVELETH        CLEAR     36  21  55 NE3       30.07R
DULUTH HARBOR  CLEAR     39  27  60 CALM      30.08R
TWO HARBORS    CLEAR     36  21  55 CALM      30.05S
SILVER BAY     CLEAR     34  27  75 CALM      30.06R
GRAND MARAIS     N/A     32  27  81 NW3       30.11R
G MARAIS ARPRT CLEAR     30  21  69 CALM      30.07R
$$
MNZ029>031-032-039>041-046>048-054>057-064-230300-
   West Central Minnesota

CITY           SKY/WX    TMP DP  RH WIND       PRES   REMARKS
FERGUS FALLS   PTCLDY    54  28  37 SE7       29.97R
WHEATON        PTCLDY    54  36  50 E10       29.99S
MORRIS         PTCLDY    52  34  50 E12       29.99R
ALEXANDRIA     CLEAR     52  30  43 SE7       30.03R
ELBOW LAKE     FAIR      53  36  52 E8        30.00S
WADENA         PTCLDY    48  30  49 E8        30.03R
GLENWOOD       CLEAR     46  34  61 SE7       30.03R
APPLETON       PTCLDY    54  36  50 E12       29.98S
BENSON         PTCLDY    54  36  50 SE9       30.01R
ORTONVILLE     MOCLDY    55  34  44 E13       29.97R
MADISON        CLOUDY    57  37  47 E16       29.98R
WILLMAR        FAIR      52  34  50 E8        30.04S
$$
MNZ033>034-036-042>043-049>051-058-059-230300-
   Central Minnesota

CITY           SKY/WX    TMP DP  RH WIND       PRES   REMARKS
ST CLOUD       CLEAR     50  27  40 E3        30.05R
SAUK CENTRE    FAIR      48  32  53 E8        30.04R
PAYNESVILLE    CLEAR     50  30  46 CALM      30.05R
AITKIN         CLEAR     43  28  56 CALM      30.04R
PINE RIVER     PTCLDY    43  32  65 CALM      30.08R
BRAINERD       PTCLDY    49  26  41 SE5       30.06R
STAPLES        PTCLDY    48  21  34 CALM      30.04R
LONG PRAIRIE   FAIR      46  32  57 E7        30.04R
LITTLE FALLS   PTCLDY    46  27  46 CALM      30.06R
LITCHFIELD     CLEAR     50  36  57 E5        30.05S
BUFFALO        CLEAR     48  28  45 E3        30.06S
MAPLE LAKE     CLEAR     49  32  52 E5        30.06R
$$
MNZ037-044-045-052-053-230300-
   East Central Minnesota

CITY           SKY/WX    TMP DP  RH WIND       PRES   REMARKS
PRINCETON      PTCLDY    46  30  53 CALM      30.07R
MORA           PTCLDY    41  23  48 CALM      30.09R
CAMBRIDGE      PTCLDY    46  28  49 CALM      30.06R
RUSH CITY      PTCLDY    42  28  57 CALM      30.08R
MOOSE LAKE     CLEAR     41  21  45 CALM      30.04R
HINCKLEY       FAIR      43  27  52 CALM      30.07R
CLOQUET        CLEAR     41  19  42 CALM      30.06R
MCGREGOR       CLEAR     45  28  53 CALM      30.06R
$$
MNZ071>073-080-081-089-090-097-098-230300-
   Southwest Minnesota

CITY           SKY/WX    TMP DP  RH WIND       PRES   REMARKS
MONTEVIDEO     MOCLDY    54  37  54 SE14G20   30.00S
GRANITE FALLS  MOCLDY    54  36  49 E13       30.01S
CANBY          CLOUDY    55  37  50 E14       29.98R
MARSHALL       CLOUDY    57  34  41 E13       29.98R
REDWOOD FALLS  MOCLDY    55  32  41 E9        30.01S
OLIVIA         PTCLDY    54  34  47 E8        30.01S
PIPESTONE      CLOUDY    57  32  38 SE7       29.97R
WINDOM         CLOUDY    57  32  38 E13       30.01S
WORTHINGTON    CLOUDY    57  28  33 E9        30.02R
JACKSON        CLOUDY    55  30  38 E9        30.02S
TRACY          CLOUDY    57  34  42 E12       29.99S
SLAYTON        CLOUDY    57  29  34 E12       29.99R
$$
MNZ065>067-074>077-082>085-091>093-230300-
   South Central Minnesota

CITY           SKY/WX    TMP DP  RH WIND       PRES   REMARKS
MANKATO        CLEAR     52  28  40 E6        30.05S
NEW ULM        PTCLDY    54  30  40 E7        30.03S
ST JAMES       PTCLDY    54  36  50 E8        30.04S
FAIRMONT       MOCLDY    54  32  43 E12       30.05R
GLENCOE        CLEAR     50  29  44 CALM      30.04S
FARIBAULT      CLEAR     52  25  35 NE3       30.07R
OWATONNA       CLEAR     48  28  46 NE5       30.06R
WASECA         CLEAR     45  30  57 CALM      30.07R
ALBERT LEA     PTCLDY    48  34  57 NE5       30.06R
$$
MNZ078>079-086>088-094>096-230300-
   Southeast Minnesota

CITY           SKY/WX    TMP DP  RH WIND       PRES   REMARKS
ROCHESTER      CLEAR     47  26  44 NE6       30.07R
RED WING       CLEAR     45  27  49 N3        30.07R
STANTON        CLEAR     49  27  41 CALM      30.06R
DODGE CENTER   PTCLDY    52  28  40 NE3       30.07R
WINONA         CLEAR     50  28  43 CALM      30.07R
AUSTIN         CLEAR     48  32  53 CALM      30.06R
PRESTON        CLEAR     46  30  52 N5        30.07R
$$
ABBREVIATIONS USED IN REMARKS
   TC - TEMPERATURES IN CELSIUS
  WCI - WIND CHILL INDEX
   HX - HEAT INDEX
  VSB - VISIBILITY
$$


USA.gov is the U.S. government's official web portal to all federal, state and local government web resources and services.